Time,TemperatureF,DewpointF,PressureIn,WindDirection,WindDirectionDegrees,WindSpeedMPH,WindSpeedGustMPH,Humidity,HourlyPrecipIn,Conditions,Clouds,dailyrainin,SoftwareType,DateUTC
2013-02-24 00:00:00,32.7,32.0,29.92,SSE,150,0.0,-999.0,97,-99.99,,,0.04,weatherlink.com 1.10,2013-02-24 05:00:00,
2013-02-24 00:15:00,32.7,32.0,29.91,SSE,150,0.0,-999.0,98,-99.99,,,0.00,weatherlink.com 1.10,2013-02-24 05:15:00,
2013-02-24 00:30:00,32.7,32.0,29.90,ENE,75,0.0,-999.0,98,-99.99,,,0.00,weatherlink.com 1.10,2013-02-24 05:30:00,
2013-02-24 00:45:00,32.7,33.0,29.90,SE,126,0.0,-999.0,99,-99.99,,,0.01,weatherlink.com 1.10,2013-02-24 05:45:00,
2013-02-24 01:00:00,32.7,33.0,29.89,SE,126,0.0,-999.0,99,-99.99,,,0.01,weatherlink.com 1.10,2013-02-24 06:00:00,
2013-02-24 01:15:00,32.8,33.0,29.89,ESE,107,0.0,-999.0,100,-99.99,,,0.01,weatherlink.com 1.10,2013-02-24 06:15:00,
2013-02-24 01:30:00,32.8,33.0,29.88,ESE,107,0.0,-999.0,100,-99.99,,,0.01,weatherlink.com 1.10,2013-02-24 06:30:00,
2013-02-24 01:45:00,32.8,33.0,29.88,ESE,107,0.0,-999.0,100,-99.99,,,0.01,weatherlink.com 1.10,2013-02-24 06:45:00,
2013-02-24 02:00:00,32.8,33.0,29.87,ESE,107,0.0,-999.0,100,-99.99,,,0.01,weatherlink.com 1.10,2013-02-24 07:00:00,
2013-02-24 02:15:00,32.8,33.0,29.86,ESE,107,0.0,-999.0,100,-99.99,,,0.02,weatherlink.com 1.10,2013-02-24 07:15:00,
2013-02-24 02:30:00,32.8,33.0,29.85,East,89,0.0,-999.0,100,-99.99,,,0.02,weatherlink.com 1.10,2013-02-24 07:30:00,
2013-02-24 02:45:00,32.8,33.0,29.84,NNE,20,0.0,-999.0,100,-99.99,,,0.03,weatherlink.com 1.10,2013-02-24 07:45:00,
2013-02-24 03:00:00,32.7,33.0,29.84,NNE,20,0.0,-999.0,100,-99.99,,,0.04,weatherlink.com 1.10,2013-02-24 08:00:00,
2013-02-24 03:15:00,32.7,33.0,29.83,NNE,20,0.0,-999.0,100,-99.99,,,0.05,weatherlink.com 1.10,2013-02-24 08:15:00,
2013-02-24 03:30:00,32.7,33.0,29.82,NNE,20,0.0,-999.0,100,-99.99,,,0.06,weatherlink.com 1.10,2013-02-24 08:30:00,
2013-02-24 03:45:00,32.8,33.0,29.82,NNE,18,0.0,-999.0,100,-99.99,,,0.06,weatherlink.com 1.10,2013-02-24 08:45:00,
2013-02-24 04:00:00,32.8,33.0,29.82,NNE,18,0.0,-999.0,100,-99.99,,,0.06,weatherlink.com 1.10,2013-02-24 09:00:00,
2013-02-24 04:15:00,32.9,33.0,29.82,NNE,18,0.0,-999.0,100,-99.99,,,0.06,weatherlink.com 1.10,2013-02-24 09:15:00,
2013-02-24 04:30:00,32.8,33.0,29.81,NNE,18,0.0,-999.0,100,-99.99,,,0.06,weatherlink.com 1.10,2013-02-24 09:30:00,
2013-02-24 04:45:00,32.9,33.0,29.80,NNE,23,0.0,-999.0,100,-99.99,,,0.07,weatherlink.com 1.10,2013-02-24 09:45:00,
2013-02-24 05:00:00,32.9,33.0,29.79,NNE,32,0.0,-999.0,100,-99.99,,,0.07,weatherlink.com 1.10,2013-02-24 10:00:00,
2013-02-24 05:15:00,32.9,33.0,29.80,North,0,0.0,-999.0,100,-99.99,,,0.09,weatherlink.com 1.10,2013-02-24 10:15:00,
2013-02-24 05:30:00,32.9,33.0,29.81,North,4,1.0,-999.0,100,-99.99,,,0.09,weatherlink.com 1.10,2013-02-24 10:30:00,
2013-02-24 05:45:00,32.9,33.0,29.80,NNE,28,0.0,-999.0,100,-99.99,,,0.09,weatherlink.com 1.10,2013-02-24 10:45:00,
2013-02-24 06:00:00,32.9,33.0,29.80,North,0,0.0,-999.0,100,-99.99,,,0.09,weatherlink.com 1.10,2013-02-24 11:00:00,
2013-02-24 06:15:00,32.9,33.0,29.80,North,0,0.0,-999.0,100,-99.99,,,0.10,weatherlink.com 1.10,2013-02-24 11:15:00,
2013-02-24 06:30:00,32.9,33.0,29.80,North,1,0.0,-999.0,100,-99.99,,,0.10,weatherlink.com 1.10,2013-02-24 11:30:00,
2013-02-24 06:45:00,32.9,33.0,29.81,North,6,0.0,-999.0,100,-99.99,,,0.12,weatherlink.com 1.10,2013-02-24 11:45:00,
2013-02-24 07:00:00,32.9,33.0,29.81,NNE,24,1.0,-999.0,100,-99.99,,,0.13,weatherlink.com 1.10,2013-02-24 12:00:00,
2013-02-24 07:15:00,32.8,33.0,29.81,North,4,0.0,-999.0,100,-99.99,,,0.15,weatherlink.com 1.10,2013-02-24 12:15:00,
2013-02-24 07:30:00,32.7,33.0,29.80,North,4,0.0,-999.0,100,-99.99,,,0.17,weatherlink.com 1.10,2013-02-24 12:30:00,
2013-02-24 07:45:00,32.7,33.0,29.79,NE,41,0.0,-999.0,100,-99.99,,,0.19,weatherlink.com 1.10,2013-02-24 12:45:00,
2013-02-24 08:00:00,32.8,33.0,29.79,NNE,31,0.0,-999.0,100,-99.99,,,0.24,weatherlink.com 1.10,2013-02-24 13:00:00,
2013-02-24 08:15:00,32.8,33.0,29.78,North,10,0.0,-999.0,100,-99.99,,,0.28,weatherlink.com 1.10,2013-02-24 13:15:00,
2013-02-24 08:30:00,32.9,33.0,29.78,North,11,0.0,-999.0,100,-99.99,,,0.31,weatherlink.com 1.10,2013-02-24 13:30:00,
2013-02-24 08:45:00,33.1,33.0,29.78,NNE,18,0.0,-999.0,100,-99.99,,,0.33,weatherlink.com 1.10,2013-02-24 13:45:00,
2013-02-24 09:00:00,33.1,33.0,29.77,NNW,339,0.0,-999.0,100,-99.99,,,0.36,weatherlink.com 1.10,2013-02-24 14:00:00,
2013-02-24 09:15:00,33.2,33.0,29.77,North,354,0.0,-999.0,100,-99.99,,,0.36,weatherlink.com 1.10,2013-02-24 14:15:00,
2013-02-24 09:30:00,33.2,33.0,29.76,North,0,0.0,-999.0,100,-99.99,,,0.37,weatherlink.com 1.10,2013-02-24 14:30:00,
2013-02-24 09:45:00,33.5,34.0,29.76,North,0,0.0,-999.0,100,-99.99,,,0.37,weatherlink.com 1.10,2013-02-24 14:45:00,
2013-02-24 10:00:00,33.4,33.0,29.76,NNE,25,1.0,-999.0,100,-99.99,,,0.38,weatherlink.com 1.10,2013-02-24 15:00:00,
2013-02-24 10:15:00,33.4,33.0,29.76,North,0,1.0,-999.0,100,-99.99,,,0.39,weatherlink.com 1.10,2013-02-24 15:15:00,
2013-02-24 10:30:00,33.4,33.0,29.75,ENE,58,2.0,-999.0,100,-99.99,,,0.39,weatherlink.com 1.10,2013-02-24 15:30:00,
2013-02-24 10:45:00,33.4,33.0,29.75,NE,38,0.0,-999.0,100,-99.99,,,0.40,weatherlink.com 1.10,2013-02-24 15:45:00,
2013-02-24 11:00:00,33.4,33.0,29.75,North,0,3.0,-999.0,100,-99.99,,,0.40,weatherlink.com 1.10,2013-02-24 16:00:00,
2013-02-24 11:15:00,33.7,34.0,29.75,North,359,5.0,-999.0,100,-99.99,,,0.41,weatherlink.com 1.10,2013-02-24 16:15:00,
2013-02-24 11:30:00,34.0,34.0,29.75,NNE,24,2.0,-999.0,100,-99.99,,,0.42,weatherlink.com 1.10,2013-02-24 16:30:00,
2013-02-24 11:45:00,34.0,34.0,29.74,North,10,1.0,-999.0,100,-99.99,,,0.43,weatherlink.com 1.10,2013-02-24 16:45:00,
2013-02-24 12:00:00,34.1,34.0,29.73,North,0,2.0,-999.0,100,-99.99,,,0.43,weatherlink.com 1.10,2013-02-24 17:00:00,
2013-02-24 12:15:00,34.3,34.0,29.73,NNE,30,2.0,-999.0,100,-99.99,,,0.43,weatherlink.com 1.10,2013-02-24 17:15:00,
2013-02-24 12:30:00,34.3,34.0,29.73,NNE,21,5.0,-999.0,100,-99.99,,,0.43,weatherlink.com 1.10,2013-02-24 17:30:00,
2013-02-24 12:45:00,34.3,34.0,29.73,ENE,64,0.0,-999.0,100,-99.99,,,0.43,weatherlink.com 1.10,2013-02-24 17:45:00,
2013-02-24 13:00:00,34.0,34.0,29.72,NNE,28,6.0,-999.0,100,-99.99,,,0.44,weatherlink.com 1.10,2013-02-24 18:00:00,
2013-02-24 13:15:00,34.1,34.0,29.72,NE,54,0.0,-999.0,100,-99.99,,,0.44,weatherlink.com 1.10,2013-02-24 18:15:00,
2013-02-24 13:30:00,34.1,34.0,29.72,NE,47,0.0,-999.0,100,-99.99,,,0.44,weatherlink.com 1.10,2013-02-24 18:30:00,
2013-02-24 13:45:00,34.3,34.0,29.72,NNE,32,2.0,-999.0,100,-99.99,,,0.44,weatherlink.com 1.10,2013-02-24 18:45:00,
2013-02-24 14:00:00,34.1,34.0,29.71,East,89,1.0,-999.0,100,-99.99,,,0.45,weatherlink.com 1.10,2013-02-24 19:00:00,
2013-02-24 14:15:00,34.3,34.0,29.71,NNW,335,1.0,-999.0,100,-99.99,,,0.45,weatherlink.com 1.10,2013-02-24 19:15:00,
2013-02-24 14:30:00,34.1,34.0,29.72,NNE,14,1.0,-999.0,100,-99.99,,,0.46,weatherlink.com 1.10,2013-02-24 19:30:00,
2013-02-24 14:45:00,34.0,34.0,29.71,NNE,13,2.0,-999.0,100,-99.99,,,0.46,weatherlink.com 1.10,2013-02-24 19:45:00,
2013-02-24 15:00:00,34.0,34.0,29.71,East,80,2.0,-999.0,100,-99.99,,,0.46,weatherlink.com 1.10,2013-02-24 20:00:00,
2013-02-24 15:15:00,34.3,34.0,29.72,NE,35,2.0,-999.0,100,-99.99,,,0.46,weatherlink.com 1.10,2013-02-24 20:15:00,
2013-02-24 15:30:00,34.4,34.0,29.73,North,7,0.0,-999.0,100,-99.99,,,0.46,weatherlink.com 1.10,2013-02-24 20:30:00,
2013-02-24 15:45:00,34.4,34.0,29.73,NE,51,2.0,-999.0,100,-99.99,,,0.46,weatherlink.com 1.10,2013-02-24 20:45:00,
2013-02-24 16:00:00,34.3,34.0,29.74,NE,35,1.0,-999.0,100,-99.99,,,0.46,weatherlink.com 1.10,2013-02-24 21:00:00,
2013-02-24 16:15:00,34.0,34.0,29.74,North,8,3.0,-999.0,99,-99.99,,,0.46,weatherlink.com 1.10,2013-02-24 21:15:00,
2013-02-24 16:30:00,33.8,34.0,29.74,NNE,24,0.0,-999.0,99,-99.99,,,0.47,weatherlink.com 1.10,2013-02-24 21:30:00,
2013-02-24 16:45:00,33.5,33.0,29.75,North,0,3.0,-999.0,99,-99.99,,,0.47,weatherlink.com 1.10,2013-02-24 21:45:00,
2013-02-24 17:00:00,33.4,33.0,29.76,North,0,0.0,-999.0,99,-99.99,,,0.47,weatherlink.com 1.10,2013-02-24 22:00:00,
2013-02-24 17:15:00,33.1,33.0,29.76,North,1,2.0,-999.0,99,-99.99,,,0.48,weatherlink.com 1.10,2013-02-24 22:15:00,
2013-02-24 17:30:00,33.1,33.0,29.76,East,82,0.0,-999.0,100,-99.99,,,0.48,weatherlink.com 1.10,2013-02-24 22:30:00,
2013-02-24 17:45:00,32.9,33.0,29.77,ENE,73,0.0,-999.0,100,-99.99,,,0.48,weatherlink.com 1.10,2013-02-24 22:45:00,
2013-02-24 18:00:00,32.8,33.0,29.78,ENE,71,0.0,-999.0,100,-99.99,,,0.48,weatherlink.com 1.10,2013-02-24 23:00:00,
2013-02-24 18:15:00,32.8,33.0,29.78,NE,42,3.0,-999.0,100,-99.99,,,0.48,weatherlink.com 1.10,2013-02-24 23:15:00,
2013-02-24 18:30:00,32.8,33.0,29.79,NE,40,0.0,-999.0,100,-99.99,,,0.49,weatherlink.com 1.10,2013-02-24 23:30:00,
2013-02-24 18:45:00,32.7,33.0,29.79,NE,34,0.0,-999.0,100,-99.99,,,0.49,weatherlink.com 1.10,2013-02-24 23:45:00,
2013-02-24 19:00:00,32.7,33.0,29.80,North,0,0.0,-999.0,100,-99.99,,,0.49,weatherlink.com 1.10,2013-02-25 00:00:00,
2013-02-24 19:15:00,32.5,33.0,29.80,East,90,0.0,-999.0,100,-99.99,,,0.49,weatherlink.com 1.10,2013-02-25 00:15:00,
2013-02-24 19:30:00,32.4,32.0,29.81,North,4,0.0,-999.0,100,-99.99,,,0.49,weatherlink.com 1.10,2013-02-25 00:30:00,
2013-02-24 19:45:00,32.2,32.0,29.82,NNE,18,0.0,-999.0,100,-99.99,,,0.49,weatherlink.com 1.10,2013-02-25 00:45:00,
2013-02-24 20:00:00,32.2,32.0,29.82,NNE,21,0.0,-999.0,100,-99.99,,,0.49,weatherlink.com 1.10,2013-02-25 01:00:00,
2013-02-24 20:15:00,32.1,32.0,29.83,NNE,21,0.0,-999.0,100,-99.99,,,0.50,weatherlink.com 1.10,2013-02-25 01:15:00,
2013-02-24 20:30:00,32.1,32.0,29.84,NNE,21,0.0,-999.0,100,-99.99,,,0.50,weatherlink.com 1.10,2013-02-25 01:30:00,
2013-02-24 20:45:00,32.1,32.0,29.84,NNE,21,0.0,-999.0,100,-99.99,,,0.50,weatherlink.com 1.10,2013-02-25 01:45:00,
2013-02-24 21:00:00,32.1,32.0,29.85,NNE,21,0.0,-999.0,100,-99.99,,,0.50,weatherlink.com 1.10,2013-02-25 02:00:00,
2013-02-24 21:15:00,31.9,32.0,29.85,NNE,21,0.0,-999.0,100,-99.99,,,0.51,weatherlink.com 1.10,2013-02-25 02:15:00,
2013-02-24 21:30:00,31.9,32.0,29.85,NNE,21,0.0,-999.0,100,-99.99,,,0.51,weatherlink.com 1.10,2013-02-25 02:30:00,
2013-02-24 21:45:00,31.8,32.0,29.86,NNE,21,0.0,-999.0,100,-99.99,,,0.52,weatherlink.com 1.10,2013-02-25 02:45:00,
2013-02-24 22:00:00,31.6,32.0,29.86,NNE,21,0.0,-999.0,100,-99.99,,,0.52,weatherlink.com 1.10,2013-02-25 03:00:00,
2013-02-24 22:15:00,31.5,32.0,29.86,NNE,21,0.0,-999.0,100,-99.99,,,0.52,weatherlink.com 1.10,2013-02-25 03:15:00,
2013-02-24 22:30:00,31.5,32.0,29.86,NNE,21,0.0,-999.0,100,-99.99,,,0.52,weatherlink.com 1.10,2013-02-25 03:30:00,
2013-02-24 22:45:00,31.3,31.0,29.87,NNE,21,0.0,-999.0,100,-99.99,,,0.53,weatherlink.com 1.10,2013-02-25 03:45:00,
2013-02-24 23:00:00,31.2,31.0,29.87,NNE,21,0.0,-999.0,100,-99.99,,,0.53,weatherlink.com 1.10,2013-02-25 04:00:00,
2013-02-24 23:15:00,31.2,31.0,29.87,NNE,21,0.0,-999.0,100,-99.99,,,0.53,weatherlink.com 1.10,2013-02-25 04:15:00,
2013-02-24 23:30:00,31.0,31.0,29.87,NNE,21,0.0,-999.0,100,-99.99,,,0.53,weatherlink.com 1.10,2013-02-25 04:30:00,
2013-02-24 23:45:00,31.0,31.0,29.88,NNE,21,0.0,-999.0,100,-99.99,,,0.53,weatherlink.com 1.10,2013-02-25 04:45:00,